Location: Teeswater
(43.9978°N, 81.2864°W)
Time: 01:53:21
(UTC+00:00)

Daily predictions for brighter satellites

Satellite Brightness Start Highest point End
(mag) Time Altitude Azimuth Time Altitude Azimuth Time Altitude Azimuth
Helios 1A Rocket 4.1 00:10:15 21° SSE 00:10:15 21° SSE 00:11:33 10° S
Cosmos 1535 Rocket 4.4 00:04:28 10° N 00:10:53 73° E 00:17:10 10° SSE
Spot 4 Rocket 4.2 00:08:26 10° S 00:13:32 74° WSW 00:18:40 10° NNW
Cosmos 1862 Rocket 3.9 00:09:26 10° SSW 00:13:49 66° W 00:18:12 10° N
YAOGAN 1 3.4 00:12:52 10° S 00:16:59 51° W 00:21:10 10° NNW
COSMO-SKYMED 1 3.0 00:15:23 10° N 00:19:25 56° WNW 00:23:26 10° SSW
SWAS 4.3 00:16:17 10° NNW 00:20:19 77° WSW 00:22:21 28° SSE
Cosmos 1777 Rocket 3.9 00:15:56 10° NNW 00:21:06 63° ENE 00:23:13 35° SE
BREEZE-M DEB (TANK) 3.3 00:25:51 10° WNW 00:27:55 40° SW 00:27:55 40° SW
Cosmos 2333 Rocket 4.2 00:29:02 10° N 00:30:26 14° NNE 00:30:26 14° NNE
Cosmos 1328 4.1 00:30:59 10° SSW 00:34:14 56° W 00:34:14 56° W
USA 305 4.1 00:32:50 10° W 00:36:18 30° NNW 00:36:19 30° NNW
Meteor 2-14 Rocket 4.3 00:30:35 10° S 00:36:37 64° E 00:39:55 28° NNE
USA 267 3.8 00:37:34 38° NE 00:38:35 40° NNE 00:44:35 10° NW
Timation 1 Rocket 4.4 00:36:05 10° SSW 00:42:02 76° WNW 00:44:48 34° NNE
Cosmos 1980 Rocket 2.1 00:36:28 10° NNW 00:42:06 88° WSW 00:44:17 39° SSE
Cosmos 1605 Rocket 4.2 00:38:02 10° NNW 00:44:23 70° W 00:50:38 10° S
Cosmos 1727 Rocket 3.9 00:42:11 10° S 00:48:24 65° E 00:48:24 65° E
Cosmos 2369 4.0 00:43:00 10° NNW 00:47:29 49° NNE 00:47:29 49° NNE
USA 59 Rocket 2.6 00:49:56 10° WNW 00:52:50 19° WSW 00:56:23 10° SSW
Cosmos 1809 Rocket 4.4 00:52:16 10° S 00:58:26 84° W 01:03:23 17° N
Cosmos 1503 Rocket 4.3 01:00:52 10° NNW 01:06:04 65° WSW 01:06:05 65° WSW
Cosmos 2082 Rocket 2.4 01:06:17 10° SSW 01:11:14 66° WSW 01:11:14 66° WSW
Resurs 01 Rocket 3.5 01:12:00 10° SSW 01:15:47 28° W 01:19:35 10° NW
BREEZE-M DEB (TANK) 4.0 01:15:14 10° WNW 01:18:08 43° NNW 01:18:08 43° NNW
COSMOS 2455 4.4 01:14:58 10° NW 01:20:13 32° WSW 01:25:26 10° S
SL-16 R/B 4.1 01:15:03 10° NNW 01:16:33 18° N 01:16:33 18° N
ATLAS 3B R/B 4.1 01:19:39 10° NNW 01:24:45 29° N 01:24:45 29° N
NOSS 3-1 (A) 4.4 01:36:00 10° NW 01:43:19 61° WSW 01:44:51 53° SSW
USA 215 3.8 01:49:44 53° W 01:49:44 53° W 01:54:39 10° WSW
ATLAS 2AS CENTAUR R/B 4.3 01:42:23 10° SSW 01:44:45 23° SSW 01:44:45 23° SSW
CENTAUR R/B 4.3 09:18:38 18° SE 09:20:09 20° ESE 09:24:33 10° ENE
ATLAS 2AS CENTAUR R/B 3.5 09:21:10 45° NE 09:21:10 45° NE 09:27:09 10° ESE
BREEZE-M DEB (TANK) 4.2 09:54:43 83° N 09:54:43 83° N 10:09:48 10° ENE
Cosmos 1943 Rocket 3.6 09:58:49 28° NNE 09:58:49 28° NNE 10:01:21 10° NNE
Cosmos 2082 Rocket 2.4 10:04:12 67° NE 10:04:28 68° ENE 10:10:08 10° SSE
Cosmos 2278 Rocket 3.1 10:08:39 37° N 10:08:39 37° N 10:12:06 10° NNE
Cosmos 1140 Rocket 4.4 10:09:19 39° NNE 10:09:19 39° NNE 10:12:34 10° NNE
Cosmos 2184 Rocket 3.9 10:08:05 10° S 10:14:15 85° E 10:20:27 10° N
Cosmos 2181 Rocket 4.4 10:17:05 49° SSW 10:17:05 49° SSW 10:21:47 10° S
Timation 2 Rocket 4.0 10:16:12 62° NNW 10:16:12 62° NNW 10:21:54 10° NNE
Cosmos 1461 4.1 10:23:00 34° NE 10:23:00 34° NE 10:25:21 10° NE
COSMOS 2406 4.0 10:18:54 24° N 10:22:09 50° ENE 10:27:43 10° SE
Cosmos 2084 Rocket 3.7 10:28:49 63° ENE 10:28:49 63° ENE 10:32:42 10° SE
SJ 16-02 3.3 10:26:16 10° SSE 10:29:54 28° E 10:33:33 10° NE
Cosmos 2074 Rocket 3.9 10:25:18 10° SSW 10:31:33 70° W 10:37:51 10° N
Cosmos 1633 Rocket 4.4 10:30:54 10° SSE 10:34:53 38° E 10:38:54 10° NNE
Tiangong -0.4 10:40:03 32° SE 10:40:03 32° SE 10:42:14 10° E
Lacrosse 5 rocket 3.2 10:38:58 18° NNE 10:39:16 18° NNE 10:41:58 10° ENE
Gblst 52 Del rocket 4.1 10:39:47 57° WSW 10:40:25 62° SW 10:45:52 10° SE
Cosmos 1610 Rocket 4.4 10:34:28 10° S 10:40:35 85° E 10:46:48 10° N
USA 32 4.1 10:35:44 10° S 10:40:57 78° E 10:46:13 10° N
Cosmos 371 Rocket 4.4 10:44:24 10° S 10:48:57 44° ESE 10:53:30 10° NNE
Lacrosse 4 Rocket 3.0 10:52:29 20° N 10:52:29 20° N 10:54:01 10° NNE
Nadezhda 3 Rocket 3.9 10:44:11 10° NNW 10:50:25 67° W 10:56:40 10° S
Cosmos 1666 Rocket 3.7 10:46:52 10° S 10:51:11 72° E 10:55:36 10° NNE
BREEZE M DEB (TANK) 2.4 10:59:12 54° W 10:59:51 66° SSW 11:07:13 10° SE
NOSS 2-2 (C) 2.7 11:00:20 70° N 11:00:20 70° N 11:03:04 10° NE
NOSS 3-2 (A) 4.2 10:56:08 10° S 11:00:42 43° ESE 11:06:01 10° NE
Cosmos 304 Rocket 4.2 10:57:26 10° S 11:02:08 63° ESE 11:06:51 10° NNE
Meteor 2-10 Rocket 4.3 11:04:02 31° NW 11:04:02 31° NW 11:07:52 10° N
Cosmos 2369 Rocket 3.0 10:59:40 10° S 11:05:10 53° ESE 11:10:44 10° NE
Cosmos 407 Rocket 3.4 11:00:49 13° SW 11:05:23 58° WNW 11:10:33 10° NNE
Cosmos 546 4.5 11:07:08 42° SW 11:08:16 78° SSE 11:11:56 10° ENE
COSMO-SKYMED 1 2.3 11:05:15 10° S 11:09:20 71° W 11:12:34 16° NNW
Cosmos 2366 rocket 4.4 11:03:24 10° S 11:09:32 66° E 11:15:46 10° NNE
CENTAUR R/B 2.3 11:05:47 20° SW 11:09:42 68° NW 11:16:37 10° NE
RUBIN 8/PSLV 4.5 11:05:36 10° NNE 11:09:50 85° ESE 11:14:04 10° SSW
ATLAS 2AS CENTAUR R/B 3.0 11:08:37 28° WNW 11:11:32 42° WSW 11:17:50 10° S
Cosmos 1953 2.7 11:08:09 10° S 11:11:44 59° E 11:15:22 10° NNE
Cosmos 2327 Rocket 4.5 11:08:50 10° SSW 11:15:14 77° W 11:21:38 10° N
Atlas Centaur 2 4.0 11:15:52 10° SW 11:18:24 14° S 11:21:12 10° SSE
CZ-4 R/B 4.0 11:14:13 10° N 11:18:56 53° WNW 11:23:42 10° SSW
Cosmos 2154 Rocket 4.5 11:13:48 10° SW 11:19:29 35° WNW 11:25:12 10° N
Cosmos 468 Rocket 3.9 11:16:30 10° NNW 11:21:40 87° WSW 11:26:50 10° SSE
Cosmos 1656 Rocket 3.7 11:17:44 10° SW 11:23:18 57° WNW 11:28:53 10° NNE
Cosmos 2218 Rocket 4.2 11:17:29 10° S 11:23:47 78° E 11:30:11 10° N
Cosmos 220 Rocket 3.8 11:21:41 12° NNW 11:25:33 88° ENE 11:29:39 10° SSE
Cosmos 2228 Rocket 3.0 11:23:04 10° NNW 11:27:23 62° W 11:31:41 10° S
IRS-1D 4.0 11:22:55 10° N 11:27:51 39° WNW 11:32:44 10° SW
Meteor 1-22 Rocket 4.3 11:24:15 10° SSW 11:30:13 66° WNW 11:36:05 10° N
Cosmos 2297 3.8 11:24:47 10° SSW 11:30:24 78° ESE 11:36:03 10° NNE
CZ-4C R/B 3.9 11:26:43 10° NNW 11:33:13 44° NE 11:41:13 10° ESE
Cosmos 1703 Rocket 4.0 11:28:56 10° N 11:33:14 64° E 11:37:32 10° SSE
NOSS 2-2 (D) 2.6 11:30:12 10° SW 11:33:43 76° NW 11:36:46 10° NE
Cosmos 2263 4.5 11:33:40 10° SSW 11:39:24 74° ESE 11:45:09 10° NNE
Okean 1-7 3.5 11:36:07 10° NNW 11:39:57 36° W 11:43:46 10° SSW
Cosmos 2251 Rocket 3.6 11:35:08 10° SW 11:40:22 57° WNW 11:45:37 10° NNE
Cosmos 1943 Rocket 3.8 11:40:20 13° NW 11:40:37 14° NW 11:43:18 10° NNW
Meteor 1-15 Rocket 4.3 11:34:51 10° SSW 11:40:41 73° WNW 11:46:37 10° N
GEOS 3 Rocket 4.1 11:37:04 10° SE 11:42:11 60° NE 11:47:26 10° NNW
Cosmos 1954 Rocket 3.9 11:38:44 10° SSW 11:43:51 72° WNW 11:49:01 10° NNE
Cosmos 1470 Rocket 3.6 11:41:37 10° SSW 11:45:48 54° W 11:50:01 10° N
Cosmos 540 Rocket 4.2 11:43:46 13° NW 11:47:37 30° W 11:52:00 10° SSW
Cosmos 2082 Rocket 3.6 11:46:05 16° WNW 11:47:54 18° W 11:51:39 10° SW
CZ-2D R/B 4.2 11:45:50 10° NNE 11:48:47 40° E 11:51:43 10° S
Cosmos 2341 Rocket 4.1 11:43:33 10° SSW 11:49:50 59° W 11:56:09 10° N
Cosmos 1763 Rocket 4.5 11:47:13 14° NW 11:50:24 25° W 11:54:28 10° SSW
Cosmos 2278 Rocket 3.9 11:50:31 13° NW 11:51:39 13° NW 11:54:22 10° NNW
Cosmos 1933 Rocket 3.7 11:49:23 10° S 11:53:47 81° E 11:58:14 10° N
Cosmos 1340 Rocket 3.4 11:52:35 10° S 11:56:12 56° E 11:59:53 10° NNE
Cosmos 1328 4.4 11:53:19 10° NNW 11:56:26 28° W 11:59:32 10° SSW
